Ludowici, GA (31316)

4:01 PM EST on February 14, 2016 (GMT -0500)
Elim / Davenport Acres - Long County | | Change Station
CLOSE
Current Station
Personal Weather Station
Location: Ludowici, GA
Elevation: 89 ft
Nearby Weather Stations

Elev 89 ft 31.79 °N, 81.69 °W | Updated 1 minute ago

Overcast
Overcast
48.1 °F
Feels Like 48 °F
N
0.0
Wind Variable Wind from ESE
Gusts 0.0 mph

Today
High -- | Low -- °F
--% Chance of Precip.
Yesterday
High -- | Low -- °F
Precip. -- in
Pressure 30.33 in
Visibility 10.0 miles
Clouds Overcast 2100 ft
Windchill 48 °F
Dew Point 30 °F
Humidity 50%
Rainfall in
Snow Depth Not available.
7:10 AM 6:12 PM
Waxing Crescent, 45% visible
METAR KJES 142035Z AUTO 11007KT 10SM OVC021 09/04 A3033 RMK AO2
Pressure 30.33 in
Visibility 10.0 miles
Clouds Overcast 2100 ft
Windchill 48 °F
Dew Point 30 °F
Humidity 50%
Rainfall in
Snow Depth Not available.
7:10 AM 6:12 PM
Waxing Crescent, 45% visible
METAR KJES 142035Z AUTO 11007KT 10SM OVC021 09/04 A3033 RMK AO2

10-Day Weather Forecast

Almanac

Astronomy

Feb. 14, 2016 Rise Set
Actual Time
Civil Twilight
Nautical Twilight
Astronomical Twilight
Moon
Length of Visible Light
Length of Day
Tomorrow will be .
, % of the Moon is Illuminated

Today's Extremes

State Highs State Lows

Community

WunderPhotos

Upload Photos

1,892,885 photos uploaded!

WunderBlog® & News

Nearby

Air Quality

  Air Quality AQ Index Pollutant
Not available.

Snow Depth

Station Depth Elevation

Earthquake Activity

City Distance Mag. Time & Date
Minimum magnitude displayed is 2.5.

Coastal Water Temperatures

Place Temperature

Stations

Nearby Weather Stations

Station Location Temp. Windchill Dew Point Humidity Wind Precip. Elev Updated Type
                   

Watches & Warnings

There are currently no watches in effect.